Location: Zagreb
(45.8000°N, 16.0000°E)
Time: 18:35:19
(UTC+02:00)

SR - Pass Details

Date: 21 August 2020
Orbit: 583 x 873 km, 66.7° (Epoch: 28 September)

Event Time Altitude Azimuth Distance (km) Brightness Sun altitude
Rises 18:22:10 0° 162° (SSE) 2,948 ? 14.8°
Reaches altitude 10° 18:25:39 10° 134° (SE) 1,989 ? 14.2°
Maximum altitude 18:27:39 13° 107° (ESE) 1,777 ? 13.9°
Drops below altitude 10° 18:29:38 10° 80° (E) 1,946 ? 13.5°
Sets 18:32:57 0° 52° (NE) 2,826 ? 12.9°
